アトラス彗星

C/2019 K8 ( ATLAS )

English version
Home page
Updated on August 19, 2019

---------------------------------------------------------------------

・ プロフィール

発見日 2019年5月27日
発見光度 17.9等
発見者 Asteroid Terrestrial-Impact Last Alert System (ATLAS) search program

・ 写真集

・ 軌道要素

Epoch 2019 July 16.0 TT = JDT 2458680.5                                         
T 2019 July 21.21357 TT                                 Williams                
q   3.1950761            (2000.0)            P               Q                  
z  +0.0006842      Peri.   85.35163     -0.02318255     -0.36220572             
 +/-0.0000190      Node   291.04712     -0.48369487     +0.81977012             
e   0.9978138      Incl.   93.22227     +0.87492962     +0.44360339             
H                                                                               
From 435 observations 2019 May 27-Aug. 7, mean residual 0".5.                   

・ 光度変化

        m1 = 10.5 + 5 logΔ + 10.0 log r

---------------------------------------------------------------------

軌道要素はM.P.E.C. 2019-Q19に掲載されたものです。
光度グラフはComet for Windowsで作成したものです。

---------------------------------------------------------------------

Copyright(C) Seiichi Yoshida (comet@aerith.net). All rights reserved.